COSMOS 2251 DEB, 34760

Orbit data source: Space-Track

COSMOS 2251 DEB, 34760 is space debris in LEO originally from a launch on Wed, 16 Jun 1993 UTC launched from the Plesetsk Missile And Space Complex (PKMTR). The debris from Iridium 33, an American commercial communications satellite, has been tracked extensively since its accidental collision with the defunct Russian satellite Cosmos 2251 in 2009. This event, occurring at high speed in low Earth orbit (LEO), generated thousands of pieces of space debris, significantly increasing the risk of further collisions. The Iridium 33 debris cloud has impacted space traffic management and orbital debris mitigation strategies, making it a subject of ongoing study in space situational awareness.

Loading next visibility...
Identifier
34760, 1993-036AAE
Orbit
LEO
Country
Flag of CISCIS
Related business
Manufacturer
Unknown
Mission
Spacecraft
Bus & Motor
Unknown
Mass
Unknown
Launch date (UTC)
1993-06-16 (33 years ago)
Launch vehicle
Unknown
Launch site
Plesetsk Missile And Space Complex (PKMTR)
Object type
Payload
Rocket body
Debris
Shape & HBR
Unknown shape, 0.1 m
Radar Cross Section
Small (<0.1 m²)

Expand to show TLE details & history
Last TLE update: 18 hours ago

TLE from 18 hours ago
0 COSMOS 2251 DEB
1 34760U 93036AAE 26036.91943050  .00001582  00000-0  72478-3 0  9996
2 34760  74.0614 203.8731 0096986 244.0582 270.8350 14.19734183874714
Epoch: 2026-02-05T22:03Z
TLE epoch observation values (Epoch: 2026-02-05T22:03:58.795Z)
Latitude
25.17439°
Longitude
-90.85969°
Altitude
828.636 km
Speed
7.441 km/s
True Right ascension
01h 04m 48s
True Declination
25° 02' 37"
Sunlit
Object was in daylight at epoch
Visualization orbit readout
Latitude
Unknown
Longitude
Unknown
Altitude
Unknown
Speed
Unknown
Apparent Right ascension
Unknown
Apparent Declination
Unknown
Sunlit
N/A
Visualization observer readout
Local Sidereal Time
18:01:49
Azimuth
Unknown
Elevation
Unknown
Doppler factor
Unknown
Orbital elements
Apogee altitude
893.741 km
Perigee altitude
754.042 km
Semi-major axis
7,202.028 km
Eccentricity
0.0097
Inclination
74.0614°
RAAN
203.8731°
Arg. of periapsis
244.0582°
True anomaly
269.72361°
Mean anomaly
270.835°
Eccentric anomaly
270.27932°
Mean motion
3.55108 °/min
Orbital period
101.38 mins
BSTAR
0.00072478
Loading maneuver chart data...
Computing Atmospheric mass density...

Documentation

Showing up to 5 results
|